Flight Track Log - Related Links

Times and Time Zones

All times are in EST time to prevent confusion due to time zone crossing. See the AFL150 flight status page for this flight to view local times or setup timezone preferences in your user account.

Time Position Orientation Groundspeed Altitude Reporting Facility
EST Latitude Longitude Course Direction KTS MPH feet Rate Location/Type
Mon 09:43:00 58.9955 -38.2021 307° West  Level Estimated
Mon 09:44:00 58.9368 -38.4023 240° Southwest  Level Estimated
Mon 09:45:00 58.8777 -38.6017 240° Southwest  Level Estimated
Mon 09:46:00 58.8183 -38.8005 240° Southwest  Level Estimated
Mon 09:47:00 58.7586 -38.9986 240° Southwest  Level Estimated
Mon 09:48:00 58.6986 -39.1960 240° Southwest  Level Estimated
Mon 09:49:00 58.6382 -39.3927 240° Southwest  Level Estimated
Mon 09:50:00 58.5776 -39.5888 239° Southwest  Level Estimated
Mon 09:51:00 58.5167 -39.7842 239° Southwest  Level Estimated
Mon 09:52:00 58.4555 -39.9789 239° Southwest  Level Estimated
Mon 09:53:00 58.3941 -40.1729 239° Southwest  Level Estimated
Mon 09:54:00 58.3323 -40.3662 239° Southwest  Level Estimated
Mon 09:55:00 58.2702 -40.5588 239° Southwest  Level Estimated
Mon 09:56:00 58.2078 -40.7508 238° Southwest  Level Estimated
Mon 09:57:00 58.1452 -40.9421 238° Southwest  Level Estimated
Mon 09:58:00 58.0822 -41.1328 238° Southwest  Level Estimated
Mon 09:59:00 58.0190 -41.3227 238° Southwest  Level Estimated
Mon 10:00:00 57.9555 -41.5120 238° Southwest  Level Estimated
Mon 10:01:00 57.8917 -41.7006 238° Southwest  Level Estimated
Mon 10:02:00 57.8277 -41.8886 237° Southwest  Level Estimated
Mon 10:03:00 57.7633 -42.0759 237° Southwest  Level Estimated
Mon 10:04:00 57.6987 -42.2625 237° Southwest  Level Estimated
Mon 10:05:00 57.6338 -42.4484 237° Southwest  Level Estimated
Mon 10:06:00 57.5687 -42.6337 237° Southwest  Level Estimated
Mon 10:07:00 57.5032 -42.8183 237° Southwest  Level Estimated
Mon 10:08:00 57.4375 -43.0023 236° Southwest  Level Estimated
Mon 10:09:00 57.3716 -43.1856 236° Southwest  Level Estimated
Mon 10:10:00 57.3053 -43.3682 236° Southwest  Level Estimated
Mon 10:11:00 57.2388 -43.5502 236° Southwest  Level Estimated
Mon 10:12:00 57.1721 -43.7315 236° Southwest  Level Estimated
Mon 10:13:00 57.1051 -43.9122 236° Southwest  Level Estimated
Mon 10:14:00 57.0378 -44.0922 236° Southwest  Level Estimated
Mon 10:15:00 56.9702 -44.2716 235° Southwest  Level Estimated
Mon 10:16:00 56.9025 -44.4503 235° Southwest  Level Estimated
Mon 10:17:00 56.8344 -44.6283 235° Southwest  Level Estimated
Mon 10:18:00 56.7661 -44.8058 235° Southwest  Level Estimated
Mon 10:19:00 56.6976 -44.9825 235° Southwest  Level Estimated
Mon 10:20:00 56.6288 -45.1587 235° Southwest  Level Estimated
Mon 10:21:00 56.5597 -45.3341 235° Southwest  Level Estimated
Mon 10:22:00 56.4904 -45.5090 234° Southwest  Level Estimated
Mon 10:23:00 56.4209 -45.6832 234° Southwest  Level Estimated
Mon 10:24:00 56.3511 -45.8568 234° Southwest  Level Estimated
Mon 10:25:00 56.2811 -46.0297 234° Southwest  Level Estimated
Mon 10:26:00 56.2108 -46.2020 234° Southwest  Level Estimated
Mon 10:27:00 56.1404 -46.3737 234° Southwest  Level Estimated
Mon 10:28:00 56.0696 -46.5447 234° Southwest  Level Estimated
Mon 10:29:00 55.9986 -46.7151 233° Southwest  Level Estimated
Mon 10:30:00 55.9274 -46.8849 233° Southwest  Level Estimated
Mon 10:31:00 55.8560 -47.0541 233° Southwest  Level Estimated
Mon 10:32:00 55.7843 -47.2226 233° Southwest  Level Estimated
Mon 10:33:00 55.7124 -47.3905 233° Southwest  Level Estimated
Mon 10:34:00 55.6403 -47.5578 233° Southwest  Level Estimated
Mon 10:35:00 55.5680 -47.7245 233° Southwest  Level Estimated
Mon 10:36:00 55.4954 -47.8906 232° Southwest  Level Estimated
Mon 10:37:00 55.4226 -48.0560 232° Southwest  Level Estimated
Mon 10:38:00 55.3495 -48.2209 232° Southwest  Level Estimated
Mon 10:38:13 63.1667 -54.8167 231° Southwest 240 276 36,000  Level Gander Center
Mon 10:39:00 55.2763 -48.3851 232° Southwest  Level Estimated
Mon 10:39:13 63.1167 -55.0500 245° Southwest 390 449 36,000  Level Gander Center
Mon 10:40:00 55.2028 -48.5488 232° Southwest  Level Estimated
Mon 10:40:13 63.0667 -55.3167 248° West 430 495 36,000  Level Gander Center
Mon 10:41:00 55.1291 -48.7118 232° Southwest  Level Estimated
Mon 10:41:13 63.0167 -55.5500 245° Southwest 440 506 36,000  Level Gander Center
Mon 10:42:00 55.0552 -48.8742 232° Southwest  Level Estimated
Mon 10:42:13 62.9667 -55.7833 245° Southwest 440 506 36,000  Level Gander Center
Mon 10:43:00 54.9813 -49.0357 231° Southwest  Level Estimated
Mon 10:43:13 62.9000 -56.0167 238° Southwest 440 506 36,000  Level Gander Center
Mon 10:44:13 62.8500 -56.2333 243° Southwest 440 506 36,000  Level Gander Center
Mon 10:45:13 62.8000 -56.4667 245° Southwest 440 506 36,000  Level Gander Center
Mon 10:46:13 62.7333 -56.6833 236° Southwest 430 495 36,000  Level Gander Center
Mon 10:47:13 62.6667 -56.9167 238° Southwest 430 495 36,000  Level Gander Center
Mon 10:48:13 62.6167 -57.1667 247° West 430 495 36,000  Level Gander Center
Mon 10:49:13 62.5500 -57.4000 238° Southwest 440 506 36,000  Level Gander Center
Mon 10:50:13 62.5000 -57.6167 244° Southwest 420 483 36,000  Level Gander Center
Mon 10:51:13 62.4333 -57.8500 238° Southwest 430 495 36,000  Level Gander Center
Mon 10:52:13 62.3667 -58.0667 237° Southwest 430 495 36,000  Level Gander Center
Mon 10:53:13 62.3167 -58.2833 244° Southwest 430 495 36,000  Level Gander Center
Mon 10:54:13 62.2667 -58.4667 240° Southwest 420 483 36,000  Level Gander Center
Mon 10:55:13 62.2000 -58.7167 240° Southwest 420 483 36,000  Level Gander Center
Mon 10:56:12 62.1167 -58.9167 228° Southwest 380 437 36,000  Level Montreal Center
Mon 10:57:12 62.0667 -59.1167 242° Southwest 430 495 36,000  Level Montreal Center
Mon 10:58:12 62.0000 -59.3333 237° Southwest 430 495 36,000  Level Montreal Center
Mon 10:59:12 61.9500 -59.5500 244° Southwest 430 495 36,000  Level Montreal Center
Mon 11:00:12 61.8833 -59.7667 237° Southwest 430 495 36,000  Level Montreal Center
Mon 11:01:12 61.8000 -59.9833 231° Southwest 440 506 36,000  Level Montreal Center
Mon 11:02:12 61.7333 -60.1667 233° Southwest 430 495 36,000  Level Montreal Center
Mon 11:03:12 61.6833 -60.4167 247° West 430 495 36,000  Level Montreal Center
Mon 11:04:12 61.6167 -60.6333 237° Southwest 430 495 36,000  Level Montreal Center
Mon 11:05:12 61.5500 -60.8333 235° Southwest 430 495 36,000  Level Montreal Center
Mon 11:06:12 61.4833 -61.0500 237° Southwest 430 495 36,000  Level Montreal Center
Mon 11:07:12 61.4167 -61.2667 237° Southwest 430 495 36,000  Level Montreal Center
Mon 11:08:12 61.3500 -61.4667 235° Southwest 430 495 36,000  Level Montreal Center
Mon 11:09:12 61.2833 -61.6333 230° Southwest 430 495 36,000  Level Montreal Center
Mon 11:10:12 61.2167 -61.8500 237° Southwest 430 495 36,000  Level Montreal Center
Mon 11:11:12 61.1500 -62.0500 235° Southwest 430 495 36,000  Level Montreal Center
Mon 11:12:12 61.0833 -62.2500 235° Southwest 430 495 36,000  Level Montreal Center
Mon 11:13:12 61.0167 -62.4667 238° Southwest 430 495 36,000  Level Montreal Center
Mon 11:14:12 60.9500 -62.6667 236° Southwest 420 483 36,000  Level Montreal Center
Mon 11:15:12 60.9000 -62.8667 243° Southwest 430 495 36,000  Level Montreal Center
Mon 11:16:13 60.8167 -63.1167 236° Southwest 420 483 36,000  Level Gander Center
Mon 11:17:12 60.7500 -63.2667 228° Southwest 430 495 36,000  Level Montreal Center
Mon 11:18:12 60.6833 -63.4667 236° Southwest 430 495 36,000  Level Montreal Center
Mon 11:19:13 60.6167 -63.7167 242° Southwest 430 495 36,000  Level Gander Center
Mon 11:20:13 60.5333 -63.9167 230° Southwest 430 495 36,000  Level Gander Center
Mon 11:21:13 60.4667 -64.1167 236° Southwest 430 495 36,000  Level Gander Center
Mon 11:22:12 60.4000 -64.2667 228° Southwest 430 495 36,000  Level Montreal Center
Mon 11:23:12 60.3333 -64.4500 234° Southwest 420 483 36,000  Level Montreal Center
Mon 11:24:12 60.2500 -64.5833 218° Southwest 420 483 36,000  Level Montreal Center
Mon 11:25:12 60.1667 -64.7500 225° Southwest 420 483 36,000  Level Montreal Center
Mon 11:26:12 60.0500 -64.9333 218° Southwest 420 483 36,000  Level Montreal Center
Mon 11:27:12 59.9667 -65.0500 215° Southwest 420 483 36,000  Level Montreal Center
Mon 11:28:12 59.8833 -65.2167 225° Southwest 420 483 36,000  Level Montreal Center
Mon 11:29:12 59.7833 -65.3833 220° Southwest 420 483 36,000  Level Montreal Center
Mon 11:30:12 59.7000 -65.5167 219° Southwest 420 483 36,000  Level Montreal Center
Mon 11:31:12 59.6167 -65.6667 222° Southwest 420 483 36,000  Level Montreal Center
Mon 11:32:12 59.5333 -65.8333 225° Southwest 420 483 36,000  Level Montreal Center
Mon 11:33:12 59.4500 -65.9500 215° Southwest 420 483 36,000  Level Montreal Center
Mon 11:34:12 59.3500 -66.1167 220° Southwest 420 483 36,000  Level Montreal Center
Mon 11:35:12 59.2667 -66.2667 223° Southwest 420 483 36,000  Level Montreal Center
Mon 11:36:12 59.1667 -66.4000 214° Southwest 420 483 36,000  Level Montreal Center
Mon 11:37:12 59.0833 -66.5500 223° Southwest 410 472 36,000  Level Montreal Center
Mon 11:38:12 58.9833 -66.6833 215° Southwest 420 483 36,000  Level Montreal Center
Mon 11:39:12 58.9000 -66.8333 223° Southwest 420 483 36,000  Level Montreal Center
Mon 11:40:12 58.8000 -66.9833 218° Southwest 420 483 36,000  Level Montreal Center
Mon 11:41:12 58.7167 -67.1333 223° Southwest 420 483 36,000  Level Montreal Center
Mon 11:42:12 58.6167 -67.2667 215° Southwest 420 483 36,000  Level Montreal Center
Mon 11:43:12 58.5333 -67.4167 223° Southwest 420 483 36,000  Level Montreal Center
Mon 11:44:12 58.4500 -67.5333 216° Southwest 410 472 36,000  Level Montreal Center
Mon 11:45:12 58.3667 -67.6833 223° Southwest 410 472 36,000  Level Montreal Center
Mon 11:46:12 58.2667 -67.8333 218° Southwest 410 472 36,000  Level Montreal Center
Mon 11:47:12 58.1667 -67.9500 212° Southwest 410 472 36,000  Level Montreal Center
Mon 11:48:12 58.0833 -68.1000 224° Southwest 410 472 36,000  Level Montreal Center
Mon 11:49:12 57.9833 -68.2167 212° Southwest 410 472 36,000  Level Montreal Center
Mon 11:50:12 57.9167 -68.3500 227° Southwest 410 472 36,000  Level Montreal Center
Mon 11:51:12 57.8167 -68.4667 212° Southwest 410 472 36,000  Level Montreal Center
Mon 11:52:12 57.7167 -68.6167 219° Southwest 420 483 36,000  Level Montreal Center
Mon 11:53:12 57.6333 -68.7500 221° Southwest 420 483 36,000  Level Montreal Center
Mon 11:54:12 57.5333 -68.8667 212° Southwest 420 483 36,000  Level Montreal Center
Mon 11:55:12 57.4500 -69.0167 224° Southwest 420 483 36,000  Level Montreal Center
Mon 11:56:12 57.3500 -69.1500 216° Southwest 420 483 36,000  Level Montreal Center
Mon 11:57:12 57.2500 -69.2667 212° Southwest 420 483 36,000  Level Montreal Center
Mon 11:58:12 57.1833 -69.4000 227° Southwest 420 483 36,000  Level Montreal Center
Mon 11:59:12 57.0667 -69.5500 215° Southwest 420 483 36,000  Level Montreal Center
Mon 12:00:12 56.9667 -69.6667 212° Southwest 410 472 36,000  Level Montreal Center
Mon 12:01:12 56.9000 -69.8000 228° Southwest 410 472 36,000  Level Montreal Center
Mon 12:02:12 56.8000 -69.9000 209° Southwest 420 483 36,000  Level Montreal Center
Mon 12:03:12 56.6833 -70.0167 209° Southwest 420 483 36,000  Level Montreal Center
Mon 12:04:12 56.5833 -70.1500 216° Southwest 410 472 36,000  Level Montreal Center
Mon 12:05:12 56.5000 -70.2500 214° Southwest 410 472 36,000  Level Montreal Center
Mon 12:06:12 56.4000 -70.3667 213° Southwest 410 472 36,000  Level Montreal Center
Mon 12:07:12 56.3000 -70.4667 209° Southwest 410 472 36,000  Level Montreal Center
Mon 12:08:12 56.2000 -70.5667 209° Southwest 420 483 36,000  Level Montreal Center
Mon 12:09:12 56.1000 -70.7000 217° Southwest 410 472 36,000  Level Montreal Center
Mon 12:10:12 56.0167 -70.8167 218° Southwest 420 483 36,000  Level Montreal Center
Mon 12:11:12 55.9000 -70.9167 206° Southwest 420 483 36,000  Level Montreal Center
Mon 12:12:12 55.8000 -71.0167 209° Southwest 420 483 36,000  Level Montreal Center
Mon 12:13:12 55.7000 -71.1167 209° Southwest 420 483 36,000  Level Montreal Center
Mon 12:14:12 55.6000 -71.2167 209° Southwest 410 472 36,000  Level Montreal Center
Mon 12:15:12 55.5000 -71.3167 210° Southwest 410 472 36,000  Level Montreal Center
Mon 12:16:12 55.4000 -71.4500 217° Southwest 420 483 36,000  Level Montreal Center
Mon 12:17:12 55.3000 -71.5500 210° Southwest 420 483 36,000  Level Montreal Center
Mon 12:18:12 55.2000 -71.6500 210° Southwest 420 483 36,000  Level Montreal Center
Mon 12:19:12 55.1000 -71.7500 210° Southwest 420 483 36,000  Level Montreal Center
Mon 12:20:12 55.0000 -71.8500 210° Southwest 420 483 36,000  Level Montreal Center
Mon 12:21:12 54.9000 -71.9833 217° Southwest 420 483 36,000  Level Montreal Center
Mon 12:22:12 54.8000 -72.0833 210° Southwest 420 483 36,000  Level Montreal Center
Mon 12:23:12 54.7000 -72.1667 206° Southwest 430 495 36,000  Level Montreal Center
Mon 12:24:12 54.6000 -72.2667 210° Southwest 430 495 36,000  Level Montreal Center
Mon 12:25:12 54.4833 -72.4000 214° Southwest 430 495 36,000  Level Montreal Center
Mon 12:26:12 54.3833 -72.5000 210° Southwest 430 495 36,000  Level Montreal Center
Mon 12:27:12 54.2833 -72.5833 206° Southwest 420 483 36,000  Level Montreal Center
Mon 12:28:12 54.1667 -72.7167 214° Southwest 430 495 36,000  Level Montreal Center
Mon 12:29:12 54.0667 -72.8000 206° Southwest 430 495 36,000  Level Montreal Center
Mon 12:31:12 53.8667 -73.0167 213° Southwest 420 483 36,000  Level Montreal Center
Mon 12:32:12 53.7667 -73.1167 211° Southwest 420 483 36,000  Level Montreal Center
Mon 12:33:12 53.6667 -73.2000 206° Southwest 430 495 36,000  Level Montreal Center
Mon 12:34:12 53.5667 -73.3000 211° Southwest 430 495 36,000  Level Montreal Center
Mon 12:35:12 53.4500 -73.4167 211° Southwest 430 495 36,000  Level Montreal Center
Mon 12:36:12 53.3500 -73.5167 211° Southwest 420 483 36,000  Level Montreal Center
Mon 12:37:12 53.2500 -73.6000 207° Southwest 420 483 36,000  Level Montreal Center
Mon 12:38:12 53.1500 -73.6833 207° Southwest 430 495 36,000  Level Montreal Center
Mon 12:39:12 53.0333 -73.8000 211° Southwest 430 495 36,000  Level Montreal Center
Mon 12:40:12 52.9333 -73.9000 211° Southwest 430 495 36,000  Level Montreal Center
Mon 12:41:12 52.8333 -73.9833 207° Southwest 420 483 36,000  Level Montreal Center
Mon 12:42:12 52.7333 -74.0667 207° Southwest 430 495 36,000  Level Montreal Center
Mon 12:43:12 52.6167 -74.1833 211° Southwest 430 495 36,000  Level Montreal Center
Mon 12:45:12 52.4000 -74.3667 207° Southwest 420 483 36,000  Level Montreal Center
Mon 12:46:12 52.3167 -74.4500 211° Southwest 420 483 36,000  Level Montreal Center
Mon 12:47:12 52.2000 -74.5667 212° Southwest 420 483 36,000  Level Montreal Center
Mon 12:48:12 52.1000 -74.6500 207° Southwest 420 483 36,000  Level Montreal Center
Mon 12:49:12 51.9833 -74.7667 212° Southwest 450 518 36,000  Level Montreal Center
Mon 12:50:12 51.8833 -74.8500 207° Southwest 420 483 36,000  Level Montreal Center
Mon 12:51:12 51.7833 -74.9333 207° Southwest 420 483 36,000  Level Montreal Center
Mon 12:52:12 51.6833 -75.0167 207° Southwest 420 483 36,000  Level Montreal Center
Mon 12:53:12 51.5833 -75.1000 207° Southwest 420 483 36,000  Level Montreal Center
Mon 12:54:12 51.4667 -75.2000 208° Southwest 420 483 36,000  Level Montreal Center
Mon 12:55:12 51.3667 -75.2833 207° Southwest 420 483 36,000  Level Montreal Center
Mon 12:56:12 51.2667 -75.3667 208° Southwest 420 483 36,000  Level Montreal Center
Mon 12:57:12 51.1667 -75.4500 208° Southwest 420 483 36,000  Level Montreal Center
Mon 12:58:12 51.0667 -75.5333 208° Southwest 420 483 36,000  Level Montreal Center
Mon 12:59:12 50.9667 -75.6500 216° Southwest 420 483 36,000  Level Montreal Center
Mon 13:00:12 50.8500 -75.7333 204° Southwest 420 483 36,000  Level Montreal Center
Mon 13:01:12 50.7500 -75.8000 203° Southwest 420 483 36,000  Level Montreal Center
Mon 13:02:12 50.6500 -75.8833 208° Southwest 420 483 36,000  Level Montreal Center
Mon 13:03:12 50.5333 -76.0000 212° Southwest 430 495 36,000  Level Montreal Center
Mon 13:04:12 50.4333 -76.0667 203° Southwest 420 483 36,000  Level Montreal Center
Mon 13:05:12 50.3333 -76.1500 208° Southwest 420 483 36,000  Level Montreal Center
Mon 13:06:12 50.2333 -76.2333 208° Southwest 420 483 36,000  Level Montreal Center
Mon 13:07:12 50.1167 -76.3333 209° Southwest 420 483 36,000  Level Montreal Center
Mon 13:08:12 50.0000 -76.4167 205° Southwest 420 483 36,000  Level Montreal Center
Mon 13:09:12 49.9000 -76.4833 203° Southwest 420 483 36,000  Level Montreal Center
Mon 13:10:12 49.8000 -76.5667 208° Southwest 420 483 36,000  Level Montreal Center
Mon 13:11:12 49.7000 -76.6667 213° Southwest 420 483 36,000  Level Montreal Center
Mon 13:12:12 49.5833 -76.7500 205° Southwest 420 483 36,000  Level Montreal Center
Mon 13:13:12 49.4833 -76.8167 203° Southwest 420 483 36,000  Level Montreal Center
Mon 13:14:13 49.3667 -76.9000 205° Southwest 440 506 36,000  Level Montreal Center
Mon 13:15:13 49.2833 -77.0000 218° Southwest 410 472 36,000  Level Montreal Center
Mon 13:16:13 49.1667 -77.0667 200° South 420 483 36,000  Level Montreal Center
Mon 13:17:13 49.0667 -77.1500 209° Southwest 420 483 36,000  Level Montreal Center
Mon 13:18:13 48.9667 -77.2500 213° Southwest 420 483 36,000  Level Montreal Center
Mon 13:19:13 48.8500 -77.3167 201° Southwest 420 483 36,000  Level Montreal Center
Mon 13:20:13 48.7333 -77.4000 205° Southwest 410 472 36,000  Level Montreal Center
Mon 13:21:13 48.6333 -77.4667 204° Southwest 420 483 36,000  Level Montreal Center
Mon 13:22:13 48.5333 -77.5333 204° Southwest 420 483 36,000  Level Montreal Center
Mon 13:23:13 48.4333 -77.6333 214° Southwest 420 483 36,000  Level Montreal Center
Mon 13:24:13 48.3333 -77.7167 209° Southwest 420 483 36,000  Level Montreal Center
Mon 13:25:13 48.2333 -77.7833 204° Southwest 410 472 36,000  Level Montreal Center
Mon 13:26:13 48.1333 -77.8500 204° Southwest 410 472 36,000  Level Montreal Center
Mon 13:27:13 48.0167 -77.9333 206° Southwest 420 483 36,000  Level Montreal Center
Mon 13:28:13 47.9000 -77.9667 191° South 420 483 36,000  Level Montreal Center
Mon 13:29:13 47.8000 -78.0500 209° Southwest 420 483 36,000  Level Montreal Center
Mon 13:30:13 47.6833 -78.1167 201° Southwest 420 483 36,000  Level Montreal Center
Mon 13:31:13 47.5833 -78.1500 193° South 420 483 36,000  Level Montreal Center
Mon 13:32:13 47.4667 -78.2333 206° Southwest 420 483 36,000  Level Montreal Center
Mon 13:33:13 47.3667 -78.3000 204° Southwest 420 483 36,000  Level Montreal Center
Mon 13:34:13 47.2500 -78.3667 201° Southwest 420 483 36,000  Level Montreal Center
Mon 13:35:13 47.1500 -78.4167 199° South 410 472 36,000  Level Montreal Center
Mon 13:36:13 47.0333 -78.4833 201° Southwest 410 472 36,000  Level Montreal Center
Mon 13:37:13 46.9333 -78.5500 204° Southwest 410 472 36,000  Level Montreal Center
Mon 13:38:13 46.8167 -78.5833 191° South 410 472 36,000  Level Montreal Center
Mon 13:39:12 46.7167 -78.6667 210° Southwest 410 472 36,000  Level Montreal Center
Mon 13:40:12 46.6167 -78.7333 205° Southwest 410 472 36,000  Level Montreal Center
Mon 13:41:12 46.5167 -78.7667 193° South 400 460 36,000  Level Montreal Center
Mon 13:42:12 46.4000 -78.8333 202° Southwest 410 472 36,000  Level Montreal Center
Mon 13:43:12 46.3000 -78.8833 199° South 410 472 36,000  Level Montreal Center
Mon 13:44:13 46.1833 -78.9333 197° South 410 472 36,000  Level Toronto Center
Mon 13:45:13 46.0833 -78.9833 199° South 410 472 36,000  Level Toronto Center
Mon 13:46:13 45.9667 -79.0333 197° South 410 472 36,000  Level Toronto Center
Mon 13:47:13 45.8667 -79.1000 205° Southwest 420 483 36,000  Level Toronto Center
Mon 13:48:13 45.7500 -79.1500 197° South 420 483 36,000  Level Toronto Center
Mon 13:49:13 45.6500 -79.2000 199° South 420 483 36,000  Level Toronto Center
Mon 13:50:13 45.5333 -79.2833 207° Southwest 410 472 36,000  Level Toronto Center
Mon 13:51:13 45.4333 -79.3167 193° South 410 472 36,000  Level Toronto Center
Mon 13:52:13 45.3167 -79.3667 197° South 410 472 36,000  Level Toronto Center
Mon 13:53:13 45.2167 -79.4500 210° Southwest 410 472 36,000  Level Toronto Center
Mon 13:54:13 45.1000 -79.4833 191° South 410 472 36,000  Level Toronto Center
Mon 13:55:13 45.0000 -79.5667 211° Southwest 410 472 36,000  Level Toronto Center
Mon 13:56:13 44.8833 -79.6167 197° South 410 472 36,000  Level Toronto Center
Mon 13:57:13 44.7833 -79.6500 193° South 410 472 36,000  Level Toronto Center
Mon 13:58:13 44.6833 -79.7333 211° Southwest 410 472 36,000  Level Toronto Center
Mon 14:04:38 44.0794 -80.2437 211° Southwest 393 452 36,000  Level FlightAware ADS-B (EHTX)
Mon 14:05:17 44.0193 -80.2971 213° Southwest 394 453 36,000  Level FlightAware ADS-B (EHTX)
Mon 14:05:54 43.9663 -80.3440 212° Southwest 394 453 36,000  Level FlightAware ADS-B (CZBA)
Mon 14:06:27 43.9334 -80.3728 212° Southwest 393 452 36,000  Level FlightAware ADS-B
Mon 14:07:06 43.8608 -80.4368 212° Southwest 393 452 36,000  Level FlightAware ADS-B
Mon 14:07:38 43.8024 -80.4881 212° Southwest 393 452 36,000  Level FlightAware ADS-B (EHTX)
Mon 14:08:27 43.7298 -80.5519 212° Southwest 394 453 36,000  Level FlightAware ADS-B (CZBA)
Mon 14:08:58 43.6812 -80.5943 212° Southwest 394 453 36,000  Level FlightAware ADS-B (CZBA)
Mon 14:09:38 43.6287 -80.6401 212° Southwest 395 455 36,000  Level FlightAware ADS-B (EHTX)
Mon 14:10:17 43.5582 -80.7012 212° Southwest 395 455 36,000  Level FlightAware ADS-B (EHTX)
Mon 14:10:57 43.5094 -80.7436 212° Southwest 397 457 36,000  Level FlightAware ADS-B (EHTX)
Mon 14:11:38 43.4339 -80.8092 212° Southwest 397 457 36,000  Level FlightAware ADS-B (EHTX)
Mon 14:12:18 43.3710 -80.8636 212° Southwest 397 457 36,000  Level FlightAware ADS-B (EHTX)
Mon 14:12:57 43.3126 -80.9138 212° Southwest 397 457 36,000  Level FlightAware ADS-B (EHTX)
Mon 14:13:39 43.2581 -80.9607 212° Southwest 395 455 36,000  Level FlightAware ADS-B (EHTX)
Mon 14:14:18 43.1889 -81.0200 212° Southwest 393 452 36,000  Level FlightAware ADS-B (EHTX)
Mon 14:14:58 43.1239 -81.0757 212° Southwest 393 452 36,000  Level FlightAware ADS-B (EHTX)
Mon 14:15:38 43.0624 -81.1282 212° Southwest 394 453 36,000  Level FlightAware ADS-B (EHTX)
Mon 14:16:18 42.9985 -81.1726 207° Southwest 403 464 36,000  Level FlightAware ADS-B (EHTX)
Mon 14:16:59 42.9288 -81.2160 205° Southwest 399 459 36,000  Level FlightAware ADS-B (EHTX)
Mon 14:17:37 42.8666 -81.2550 205° Southwest 399 459 36,000  Level FlightAware ADS-B (EHTX)
Mon 14:18:18 42.7949 -81.2993 204° Southwest 400 460 36,000  Level FlightAware ADS-B (EHTX)
Mon 14:18:59 42.7295 -81.3363 203° Southwest 408 470 36,000  Level FlightAware ADS-B (EHTX)
Mon 14:19:38 42.6552 -81.3724 200° South 405 466 36,000  Level FlightAware ADS-B (EHTX)
Mon 14:20:16 42.5995 -81.3999 200° South 404 465 36,000  Level FlightAware ADS-B (EHTX)
Mon 14:20:54 42.5474 -81.4262 200° South 402 463 36,000  Level FlightAware ADS-B (EHTX)
Mon 14:21:36 42.4485 -81.4760 200° South 400 460 36,000  Level FlightAware ADS-B (EHTX)
Mon 14:22:18 42.3832 -81.5088 200° South 399 459 36,000  Level FlightAware ADS-B (EHTX)
Mon 14:22:59 42.3116 -81.5447 200° South 399 459 36,000  Level FlightAware ADS-B (EHTX)
Mon 14:23:46 42.2428 -81.5783 200° South 399 459 36,000  Level Cleveland Center
Mon 14:24:48 42.1214 -81.6394 200° South 396 456 36,000  Level Cleveland Center
Mon 14:25:50 42.0169 -81.6906 200° South 396 456 36,000  Level Cleveland Center
Mon 14:26:52 41.9122 -81.7431 200° South 398 458 36,000  Level Cleveland Center
Mon 14:27:54 41.8083 -81.7936 200° South 395 455 36,000  Level Cleveland Center
Mon 14:28:56 41.7036 -81.8442 200° South 398 458 36,000  Level Cleveland Center
Mon 14:29:58 41.5992 -81.8964 201° Southwest 397 457 36,000  Level Cleveland Center
Mon 14:31:00 41.4947 -81.9472 200° South 399 459 36,000  Level Cleveland Center
Mon 14:32:02 41.3808 -82.0028 200° South 395 455 36,000  Level Cleveland Center
Mon 14:33:03 41.2786 -82.0514 200° South 392 451 36,000  Level Cleveland Center
Mon 14:34:05 41.1633 -82.1081 200° South 394 453 36,000  Level Cleveland Center
Mon 14:35:07 41.0644 -82.1553 200° South 397 457 36,000  Level Cleveland Center
Mon 14:40:59 40.4390 -82.4535 200° South 395 455 36,000  Level FlightAware ADS-B (KBKF)
Mon 14:42:12 40.3156 -82.5115 200° South 391 450 36,000  Level FlightAware ADS-B (KBKF)
Mon 14:42:45 40.2593 -82.5378 200° South 387 445 36,000  Level FlightAware ADS-B (KBKF)
Mon 14:43:27 40.1933 -82.5681 199° South 391 450 36,000  Level FlightAware ADS-B (KBKF)
Mon 14:44:11 40.1102 -82.5893 191° South 403 464 36,000  Level FlightAware ADS-B (KBKF)
Mon 14:44:48 40.0397 -82.5950 183° South 408 470 36,000  Level FlightAware ADS-B (KBKF)
Mon 14:45:30 39.9598 -82.6013 183° South 408 470 36,000  Level FlightAware ADS-B (KBKF)
Mon 14:46:11 39.9165 -82.6044 183° South 405 466 36,000  Level FlightAware ADS-B (KBKF)
Mon 14:46:43 39.8239 -82.6107 183° South 402 463 36,000  Level FlightAware ADS-B (KBKF)
Mon 14:50:19 39.4341 -82.6368 183° South 398 458 36,000  Level FlightAware ADS-B
Mon 14:54:40 38.9577 -82.6685 183° South 387 445 36,000  Level FlightAware ADS-B
Mon 14:55:40 38.8540 -82.6753 183° South 383 441 36,000  Level FlightAware ADS-B
Mon 14:56:20 38.7880 -82.6796 183° South 383 441 36,000  Level FlightAware ADS-B
Mon 14:56:52 38.7417 -82.6825 183° South 381 438 36,000  Level Indianapolis Center
Mon 14:57:54 38.6306 -82.6889 183° South 380 437 36,000  Level Indianapolis Center
Mon 14:58:56 38.5264 -82.6956 183° South 375 432 36,000  Level Indianapolis Center
Mon 14:59:57 38.4047 -82.7036 183° South 375 432 36,000  Level Indianapolis Center
Mon 15:00:59 38.3003 -82.7108 183° South 374 430 36,000  Level Indianapolis Center
Mon 15:02:01 38.1972 -82.7178 183° South 370 426 36,000  Level Indianapolis Center
Mon 15:03:03 38.0947 -82.7250 183° South 369 425 36,000  Level Indianapolis Center
Mon 15:04:05 37.9925 -82.7306 182° South 366 421 36,000  Level Indianapolis Center
Mon 15:05:06 37.8897 -82.7375 183° South 368 423 36,000  Level Indianapolis Center
Mon 15:06:08 37.7872 -82.7450 183° South 369 425 36,000  Level Indianapolis Center
Mon 15:07:10 37.6717 -82.7644 188° South 361 415 36,000  Level Indianapolis Center
Mon 15:08:12 37.5861 -82.8108 203° Southwest 336 387 36,000  Level Indianapolis Center
Mon 15:09:13 37.5064 -82.8658 209° Southwest 328 377 36,000  Level Indianapolis Center
Mon 15:10:15 37.4244 -82.9181 207° Southwest 330 380 36,000  Level Indianapolis Center
Mon 15:11:17 37.3439 -82.9722 208° Southwest 329 379 36,000  Level Indianapolis Center
Mon 15:12:19 37.2628 -83.0247 207° Southwest 328 377 36,000  Level Indianapolis Center
Mon 15:13:20 37.1700 -83.0856 208° Southwest 325 374 36,000  Level Indianapolis Center
Mon 15:14:22 37.0897 -83.1367 207° Southwest 326 375 36,000  Level Indianapolis Center
Mon 15:15:24 37.0094 -83.1903 208° Southwest 328 377 36,000  Level Indianapolis Center
Mon 15:16:25 36.9283 -83.2422 207° Southwest 328 377 36,000  Level Indianapolis Center
Mon 15:17:27 36.8469 -83.2947 207° Southwest 329 379 36,000  Level Indianapolis Center
Mon 15:18:29 36.7519 -83.3547 207° Southwest 330 380 36,000  Level Indianapolis Center
Mon 15:19:30 36.6700 -83.4075 207° Southwest 331 381 36,000 -341 Level Indianapolis Center
Mon 15:20:32 36.5881 -83.4603 207° Southwest 333 383 35,300 -484 Descending Indianapolis Center
Mon 15:21:34 36.5083 -83.5106 207° Southwest 334 384 35,000 -145 Descending Indianapolis Center
Mon 15:22:36 36.4281 -83.5639 208° Southwest 329 379 35,000  Level Indianapolis Center
Mon 15:23:37 36.3289 -83.6267 207° Southwest 333 383 35,000  Level Indianapolis Center
Mon 15:24:39 36.2467 -83.6783 207° Southwest 331 381 35,000  Level Indianapolis Center
Mon 15:25:41 36.1636 -83.7314 207° Southwest 334 384 35,000  Level Indianapolis Center
Mon 15:26:39 36.0808 -83.7844 207° Southwest 330 380 35,000  Level Atlanta Center
Mon 15:27:39 35.9997 -83.8361 207° Southwest 330 380 35,000  Level Atlanta Center
Mon 15:28:39 35.9142 -83.8875 206° Southwest 335 386 35,000  Level Atlanta Center
Mon 15:29:39 35.8161 -83.9183 194° South 349 402 35,000  Level Atlanta Center
Mon 15:30:39 35.7369 -83.9364 190° South 355 409 35,000  Level Atlanta Center
Mon 15:31:39 35.6264 -83.9647 192° South 366 421 35,000  Level Atlanta Center
Mon 15:32:39 35.5264 -83.9878 191° South 371 427 35,000  Level Atlanta Center
Mon 15:33:39 35.4242 -84.0108 190° South 376 433 35,000  Level Atlanta Center
Mon 15:34:39 35.3239 -84.0361 192° South 371 427 35,000  Level Atlanta Center
Mon 15:35:39 35.2217 -84.0617 192° South 371 427 35,000  Level Atlanta Center
Mon 15:36:39 35.1194 -84.0869 191° South 371 427 35,000 300 Level Atlanta Center
Mon 15:37:39 35.0192 -84.1097 191° South 371 427 35,600 500 Climbing Atlanta Center
Mon 15:38:39 34.9150 -84.1375 192° South 376 433 36,000 200 Climbing Atlanta Center
Mon 15:39:39 34.8106 -84.1603 190° South 376 433 36,000  Level Atlanta Center
Mon 15:40:39 34.7061 -84.1853 191° South 376 433 36,000  Level Atlanta Center
Mon 15:41:39 34.5936 -84.2078 189° South 375 432 36,000  Level Atlanta Center
Mon 15:42:39 34.4892 -84.2328 191° South 375 432 36,000  Level Atlanta Center
Mon 15:43:39 34.3847 -84.2603 192° South 381 438 36,000  Level Atlanta Center
Mon 15:44:39 34.2783 -84.2850 191° South 386 444 36,000  Level Atlanta Center
Mon 15:45:39 34.1739 -84.3075 190° South 391 450 36,000  Level Atlanta Center
Mon 15:46:39 34.0694 -84.3347 192° South 397 457 36,000  Level Atlanta Center
Mon 15:47:39 33.9650 -84.3594 191° South 397 457 36,000  Level Atlanta Center
Mon 15:48:39 33.8439 -84.3889 191° South 397 457 36,000 200 Level Atlanta Center
Mon 15:49:39 33.7414 -84.4111 190° South 392 451 36,400 500 Climbing Atlanta Center
Mon 15:50:39 33.6350 -84.4356 191° South 398 458 37,000 300 Climbing Atlanta Center
Mon 15:51:39 33.5097 -84.4375 181° South 411 473 37,000  Level Atlanta Center
Mon 15:52:39 33.3928 -84.4319 178° South 421 484 37,000  Level Atlanta Center
Mon 15:53:39 33.2822 -84.4314 180° South 427 491 37,000  Level Atlanta Center
Mon 15:54:39 33.1550 -84.4333 181° South 427 491 37,000  Level Atlanta Center
Mon 15:55:39 33.0381 -84.4328 180° South 426 490 37,000  Level Atlanta Center
Mon 15:56:39 32.9192 -84.4272 178° South 426 490 37,000  Level Atlanta Center
Mon 15:57:39 32.7958 -84.4267 180° South 432 497 37,000  Level Atlanta Center
Mon 15:58:39 32.6811 -84.4164 176° South 432 497 37,000  Level Atlanta Center
Mon 15:59:39 32.5581 -84.4158 180° South 432 497 37,000  Level Atlanta Center
Mon 16:00:39 32.4389 -84.4131 179° South 438 504 37,000  Level Atlanta Center
Mon 16:01:39 32.3158 -84.4125 180° South 438 504 37,000  Level Atlanta Center
Mon 16:02:39 32.1969 -84.4094 179° South 438 504 37,000  Level Atlanta Center
Mon 16:03:39 32.0781 -84.4067 179° South 438 504 37,000  Level Atlanta Center
Mon 16:04:43 31.9614 -84.4033 179° South 450 518 37,000  Level Jacksonville Center
Mon 16:10:07 31.2946 -84.3885 179° South 435 501 37,000  Level FlightAware ADS-B
Mon 16:12:26 31.1493 -84.3855 179° South 438 504 37,000  Level FlightAware ADS-B
Mon 16:13:37 30.8726 -84.3802 179° South 440 506 37,000  Level FlightAware ADS-B (KONZ)
Mon 16:14:15 30.8726 -84.3802 179° South 442 509 37,000  Level FlightAware ADS-B (KONZ)
Mon 16:14:46 30.7317 -84.3774 179° South 442 509 37,000  Level FlightAware ADS-B
Mon 16:15:25 30.6520 -84.3711 176° South 453 521 37,000  Level FlightAware ADS-B (KONZ)
Mon 16:16:05 30.5727 -84.3532 169° South 466 536 37,000  Level FlightAware ADS-B (KONZ)
Mon 16:16:35 30.5367 -84.3414 164° South 478 550 37,000  Level FlightAware ADS-B (KONZ)
Mon 16:17:06 30.4525 -84.3032 159° South 485 558 37,000  Level FlightAware ADS-B
Mon 16:17:47 30.3618 -84.2460 151° Southeast 489 563 37,000  Level FlightAware ADS-B
Mon 16:18:27 30.2923 -84.2007 151° Southeast 489 563 37,000  Level FlightAware ADS-B
Mon 16:19:15 30.2373 -84.1649 151° Southeast 488 562 37,000  Level FlightAware ADS-B
Mon 16:19:57 30.1126 -84.0838 151° Southeast 489 563 37,000  Level FlightAware ADS-B
Mon 16:20:36 30.0603 -84.0498 151° Southeast 490 564 37,000  Level FlightAware ADS-B
Mon 16:21:41 29.8980 -83.9445 151° Southeast 493 567 37,000  Level FlightAware ADS-B (KONZ)
Mon 16:22:43 29.7847 -83.8714 151° Southeast 493 567 37,000  Level Jacksonville Center
Mon 16:23:43 29.6661 -83.7961 151° Southeast 493 567 37,000  Level Jacksonville Center
Mon 16:24:43 29.5456 -83.7208 151° Southeast 493 567 37,000  Level Jacksonville Center
Mon 16:25:43 29.4272 -83.6461 151° Southeast 493 567 37,000  Level Jacksonville Center
Mon 16:26:43 29.3086 -83.5667 150° Southeast 493 567 37,000  Level Jacksonville Center
Mon 16:27:43 29.1919 -83.4944 152° Southeast 493 567 37,000  Level Jacksonville Center
Mon 16:28:43 29.0756 -83.4178 150° Southeast 488 562 37,000  Level Jacksonville Center
Mon 16:29:43 28.9567 -83.3433 151° Southeast 488 562 37,000  Level Jacksonville Center
Mon 16:30:43 28.8403 -83.2694 151° Southeast 482 555 37,000  Level Jacksonville Center
Mon 16:31:43 28.7236 -83.1933 150° Southeast 482 555 37,000  Level Jacksonville Center
Mon 16:32:43 28.6067 -83.1219 152° Southeast 482 555 37,000  Level Jacksonville Center
Mon 16:37:55 27.9853 -82.7322 152° Southeast 487 560 37,000  Level FlightAware ADS-B
Mon 16:38:40 27.9393 -82.7037 151° Southeast 487 560 37,000  Level FlightAware ADS-B
Mon 16:39:26 27.8090 -82.6189 150° Southeast 490 564 37,000  Level FlightAware ADS-B
Mon 16:40:02 27.7376 -82.5707 149° Southeast 490 564 37,000  Level FlightAware ADS-B
Mon 16:40:35 27.6776 -82.5306 149° Southeast 491 565 37,000  Level FlightAware ADS-B
Mon 16:41:19 27.5857 -82.4694 149° Southeast 491 565 37,000  Level FlightAware ADS-B
Mon 16:41:49 27.5289 -82.4317 150° Southeast 491 565 37,000  Level FlightAware ADS-B
Mon 16:42:23 27.4841 -82.4021 150° Southeast 492 566 37,000  Level FlightAware ADS-B
Mon 16:43:03 27.3823 -82.3346 150° Southeast 491 565 37,000  Level FlightAware ADS-B
Mon 16:43:20 27.3481 -82.3120 150° Southeast 491 565 37,000  Level FlightAware ADS-B
Mon 16:44:01 27.2683 -82.2592 150° Southeast 488 562 37,000  Level FlightAware ADS-B
Mon 16:45:03 27.1493 -82.1807 150° Southeast 488 562 37,000  Level FlightAware ADS-B
Mon 16:45:42 27.0725 -82.1302 150° Southeast 489 563 37,000  Level FlightAware ADS-B
Mon 16:47:18 26.8871 -82.0086 150° Southeast 487 560 37,000  Level FlightAware ADS-B
Mon 16:48:01 26.8016 -81.9527 150° Southeast 488 562 37,000  Level FlightAware ADS-B
Mon 16:48:41 26.7278 -81.9045 150° Southeast 489 563 37,000  Level FlightAware ADS-B
Mon 16:49:22 26.6437 -81.8498 150° Southeast 491 565 37,000  Level FlightAware ADS-B
Mon 16:50:03 26.5628 -81.7978 150° Southeast 492 566 37,000  Level FlightAware ADS-B
Mon 16:50:42 26.4830 -81.7595 157° South 487 560 37,000  Level FlightAware ADS-B
Mon 16:51:22 26.4363 -81.7419 161° South 487 560 37,000  Level FlightAware ADS-B
Mon 16:52:23 26.2691 -81.6766 161° South 488 562 37,000  Level FlightAware ADS-B
Mon 16:54:00 26.0638 -81.5991 161° South 490 564 37,000  Level FlightAware ADS-B
Mon 16:54:37 25.9831 -81.5687 161° South 487 560 37,000  Level FlightAware ADS-B
Mon 16:55:22 25.8848 -81.5317 161° South 486 559 37,000  Level FlightAware ADS-B
Mon 16:56:03 25.7961 -81.4984 161° South 486 559 37,000  Level FlightAware ADS-B
Mon 16:56:43 25.7102 -81.4662 161° South 489 563 37,000  Level FlightAware ADS-B
Mon 16:57:40 25.5875 -81.4203 161° South 489 563 37,000  Level FlightAware ADS-B
Mon 16:58:48 25.4489 -81.3711 161° South 496 571 37,000 -234 Level Miami Center
Mon 16:59:48 25.3183 -81.3456 170° South 489 563 36,500 -750 Descending Miami Center
Mon 17:00:48 25.2058 -81.4033 205° Southwest 448 516 35,500 -1,000 Descending Miami Center
Mon 17:01:48 25.1111 -81.4939 221° Southwest 427 491 34,500 -1,000 Descending Miami Center
Mon 17:02:48 25.0206 -81.5844 222° Southwest 438 504 33,500 -1,000 Descending Miami Center
Mon 17:03:48 24.9281 -81.6703 220° Southwest 445 512 32,500 -950 Descending Miami Center
Mon 17:04:48 24.8461 -81.7472 220° Southwest 436 502 31,600 -950 Descending Miami Center
Mon 17:05:48 24.7575 -81.8328 221° Southwest 431 496 30,600 -1,050 Descending Miami Center
Mon 17:06:48 24.6564 -81.9200 218° Southwest 426 490 29,500 -1,000 Descending Miami Center
Mon 17:07:48 24.5725 -81.9967 220° Southwest 414 476 28,600 -950 Descending Miami Center
Mon 17:08:48 24.4861 -82.0728 219° Southwest 403 464 27,600 -900 Descending Miami Center
Mon 17:09:48 24.4042 -82.1536 222° Southwest 403 464 26,800 -850 Descending Miami Center
Mon 17:10:48 24.3200 -82.2253 218° Southwest 398 458 25,900 -900 Descending Miami Center
Mon 17:11:48 24.2422 -82.3017 222° Southwest 393 452 25,000 -900 Descending Miami Center
Mon 17:13:00 24.1055 -82.3135 230° Southwest  Level Estimated
Mon 17:20:00 23.3822 -82.4332 175° South  Level FlightAware Approximate
Mon 17:21:00 23.2684 -82.4218 175° South  Level FlightAware Approximate
Mon 17:22:00 23.1543 -82.4167 180° South  Level FlightAware Approximate
Mon 17:23:00 23.0415 -82.4000 180° South  Level FlightAware Approximate
Mon 17:24:00 22.9891 -82.4091 180° South  Level Estimated
Mon 17:25:00 22.9891 -82.4091 180° South  Level Estimated
Mon 17:26:00 22.9891 -82.4091 180° South  Level Estimated
Mon 17:27:00 22.9891 -82.4091 180° South  Level Estimated
Mon 17:28:00 22.9891 -82.4091 180° South  Level Estimated
Mon 17:29:00 22.9891 -82.4091 180° South  Level Estimated
Mon 17:30:00 22.9891 -82.4091 180° South  Level Estimated
Mon 17:31:00 22.9891 -82.4091 180° South  Level Estimated
Mon 17:32:00 22.9891 -82.4091 180° South  Level Estimated
Mon 17:33:00 22.9891 -82.4091 180° South  Level Estimated
Mon 17:34:00 22.9891 -82.4091 180° South  Level Estimated
Mon 17:35:00 22.9891 -82.4091 180° South  Level Estimated
Mon 17:36:00 22.9891 -82.4091 180° South  Level Estimated
Mon 17:37:00 22.9891 -82.4091 180° South  Level Estimated
Mon 17:38:00 22.9891 -82.4091 180° South  Level Estimated
Mon 17:39:00 22.9891 -82.4091 180° South  Level Estimated
Mon 17:40:00 22.9891 -82.4091 180° South  Level Estimated
Mon 17:41:00 22.9891 -82.4091 180° South  Level Estimated
Mon 17:42:00 22.9891 -82.4091 180° South  Level Estimated
Mon 17:43:00 22.9891 -82.4091 180° South  Level Estimated
Mon 17:44:00 22.9891 -82.4091 180° South  Level Estimated
Mon 17:45:00 22.9891 -82.4091 180° South  Level Estimated
Mon 17:46:00 22.9891 -82.4091 180° South  Level Estimated
Mon 17:47:00 22.9891 -82.4091 180° South  Level Estimated
Mon 17:48:00 22.9891 -82.4091 180° South  Level Estimated

Login

Don't have an account? Register now (free) for customized features, flight alerts, and more!